Tracking 23726 objects as of 22-Sep-2021
HD Live streaming from Space Station
objects crossing your sky now

JILIN-01 GAOFEN 3J

Track JILIN-01 GAOFEN 3J now!
10-day predictions


NORAD ID: 46462
Int'l Code: 2020-065J
Perigee: 533.1 km
Apogee: 554.2 km
Inclination: 97.5 °
Period: 95.4 minutes
Semi major axis: 6914 km
RCS: Unknown
Launch date: September 15, 2020
Source: People's Republic of China (PRC)
Launch site: Yellow Sea Launch Area, China (YSLA)
aabbcc
Your satellite tracking list
Your tracking list is empty




NASA's NSSDC Master Catalog

Two Line Element Set (TLE):
1 46462U 20065J   21265.54282903  .00000500  00000-0  34647-4 0  9997
2 46462  97.4878 319.7247 0015232  92.3652  43.7524 15.09908697 56202
Source of the keplerian elements: AFSPC